contact:dominique.lefevre@mio.osupytheas.fr, maurice.libes@osupytheas.fr, didier.mallarino@osupytheas.fr
Project:EMSO http://www.emso-fr.org/EMSO-France
Depth: 2436.0 m
Title:EMSO Ligure Ouest : Data MII capteur MICROCAT
DateTime_Computer,Latitude,Longitude,Temperature,Conductivity,Pressure,DateTime_Instrument
DateTime_Computer,Latitude,Longitude,degC,S m-1,dbar,DateTime_Instrument
2020-01-10T00:00:23Z,42.805,6.029,13.2967,4.59995,2469.9,2020-1-10T02:00:55Z
2020-01-10T00:03:26Z,42.805,6.029,13.2967,4.59993,2469.914,2020-1-10T02:03:58Z
2020-01-10T00:06:29Z,42.805,6.029,13.2968,4.59999,2469.9,2020-1-10T02:07:01Z
2020-01-10T00:09:33Z,42.805,6.029,13.2968,4.59994,2469.876,2020-1-10T02:10:05Z
2020-01-10T00:12:36Z,42.805,6.029,13.2967,4.59997,2469.89,2020-1-10T02:13:08Z
2020-01-10T00:15:39Z,42.805,6.029,13.2961,4.59996,2469.876,2020-1-10T02:16:11Z
2020-01-10T00:18:42Z,42.805,6.029,13.2968,4.59997,2469.876,2020-1-10T02:19:14Z
2020-01-10T00:21:45Z,42.805,6.029,13.2965,4.60003,2469.9,2020-1-10T02:22:17Z
2020-01-10T00:24:49Z,42.805,6.029,13.2966,4.60000,2469.914,2020-1-10T02:25:21Z
2020-01-10T00:27:52Z,42.805,6.029,13.2965,4.59994,2469.876,2020-1-10T02:28:24Z
2020-01-10T00:30:55Z,42.805,6.029,13.2966,4.59999,2469.876,2020-1-10T02:31:27Z
2020-01-10T00:33:58Z,42.805,6.029,13.2966,4.60000,2469.867,2020-1-10T02:34:30Z
2020-01-10T00:37:01Z,42.805,6.029,13.2966,4.59999,2469.876,2020-1-10T02:37:33Z
2020-01-10T00:40:05Z,42.805,6.029,13.2965,4.59996,2469.876,2020-1-10T02:40:37Z
2020-01-10T00:43:08Z,42.805,6.029,13.2964,4.59998,2469.821,2020-1-10T02:43:40Z
2020-01-10T00:46:11Z,42.805,6.029,13.2967,4.60008,2469.89,2020-1-10T02:46:43Z
2020-01-10T00:49:14Z,42.805,6.029,13.2968,4.59996,2469.867,2020-1-10T02:49:46Z
2020-01-10T00:52:18Z,42.805,6.029,13.2969,4.60009,2469.89,2020-1-10T02:52:50Z
2020-01-10T00:55:21Z,42.805,6.029,13.2967,4.60009,2469.89,2020-1-10T02:55:53Z
2020-01-10T00:58:24Z,42.805,6.029,13.2967,4.60019,2469.9,2020-1-10T02:58:56Z
2020-01-10T01:01:27Z,42.805,6.029,13.2973,4.60025,2469.927,2020-1-10T03:01:59Z
2020-01-10T01:04:31Z,42.805,6.029,13.2967,4.60041,2469.867,2020-1-10T03:05:03Z
2020-01-10T01:07:34Z,42.805,6.029,13.2966,4.60037,2469.937,2020-1-10T03:08:06Z
2020-01-10T01:10:37Z,42.805,6.029,13.2967,4.60067,2469.89,2020-1-10T03:11:09Z
2020-01-10T01:13:41Z,42.805,6.029,13.2966,4.60068,2469.914,2020-1-10T03:14:13Z
2020-01-10T01:16:44Z,42.805,6.029,13.2971,4.60054,2469.876,2020-1-10T03:17:16Z
2020-01-10T01:19:47Z,42.805,6.029,13.2982,4.60040,2469.89,2020-1-10T03:20:19Z
2020-01-10T01:22:50Z,42.805,6.029,13.2979,4.60033,2469.914,2020-1-10T03:23:22Z
2020-01-10T01:25:53Z,42.805,6.029,13.3010,4.60044,2469.9,2020-1-10T03:26:26Z
2020-01-10T01:28:57Z,42.805,6.029,13.2979,4.60060,2469.914,2020-1-10T03:29:29Z
2020-01-10T01:32:00Z,42.805,6.029,13.2971,4.60122,2469.876,2020-1-10T03:32:32Z
2020-01-10T01:35:03Z,42.805,6.029,13.2968,4.60061,2469.844,2020-1-10T03:35:36Z
2020-01-10T01:38:07Z,42.805,6.029,13.2967,4.60032,2469.89,2020-1-10T03:38:39Z
2020-01-10T01:41:10Z,42.805,6.029,13.2968,4.60031,2469.876,2020-1-10T03:41:42Z
2020-01-10T01:44:13Z,42.805,6.029,13.2968,4.60042,2469.89,2020-1-10T03:44:45Z
2020-01-10T01:47:16Z,42.805,6.029,13.2964,4.60060,2469.9,2020-1-10T03:47:48Z
2020-01-10T01:50:19Z,42.805,6.029,13.2967,4.60060,2469.876,2020-1-10T03:50:52Z
2020-01-10T01:53:23Z,42.805,6.029,13.2967,4.60067,2469.9,2020-1-10T03:53:55Z
2020-01-10T01:56:26Z,42.805,6.029,13.2966,4.60033,2469.89,2020-1-10T03:56:58Z
2020-01-10T01:59:29Z,42.805,6.029,13.2969,4.60062,2469.914,2020-1-10T04:00:01Z
2020-01-10T02:02:32Z,42.805,6.029,13.2987,4.60010,2469.89,2020-1-10T04:03:05Z
2020-01-10T02:05:36Z,42.805,6.029,13.2986,4.60015,2469.937,2020-1-10T04:06:08Z
2020-01-10T02:08:39Z,42.805,6.029,13.2989,4.60037,2469.9,2020-1-10T04:09:11Z
2020-01-10T02:11:42Z,42.805,6.029,13.3027,4.60031,2469.89,2020-1-10T04:12:14Z
2020-01-10T02:14:45Z,42.805,6.029,13.2999,4.60045,2469.937,2020-1-10T04:15:17Z
2020-01-10T02:17:49Z,42.805,6.029,13.3033,4.60040,2469.923,2020-1-10T04:18:21Z
2020-01-10T02:20:52Z,42.805,6.029,13.3032,4.60024,2469.937,2020-1-10T04:21:24Z
2020-01-10T02:23:55Z,42.805,6.029,13.2991,4.60031,2469.89,2020-1-10T04:24:27Z
2020-01-10T02:26:58Z,42.805,6.029,13.2970,4.60057,2469.937,2020-1-10T04:27:30Z
2020-01-10T02:30:02Z,42.805,6.029,13.2968,4.60063,2469.937,2020-1-10T04:30:34Z
2020-01-10T02:33:05Z,42.805,6.029,13.2967,4.60044,2469.984,2020-1-10T04:33:37Z
2020-01-10T02:36:08Z,42.805,6.029,13.2964,4.60052,2469.937,2020-1-10T04:36:40Z
2020-01-10T02:39:11Z,42.805,6.029,13.2996,4.60020,2469.937,2020-1-10T04:39:43Z
2020-01-10T02:42:15Z,42.805,6.029,13.3053,4.60053,2469.937,2020-1-10T04:42:47Z
2020-01-10T02:45:18Z,42.805,6.029,13.3041,4.60016,2469.9,2020-1-10T04:45:50Z
2020-01-10T02:48:21Z,42.805,6.029,13.3030,4.60008,2469.923,2020-1-10T04:48:53Z
2020-01-10T02:51:24Z,42.805,6.029,13.3024,4.60039,2469.914,2020-1-10T04:51:56Z
2020-01-10T02:54:27Z,42.805,6.029,13.3038,4.60007,2469.947,2020-1-10T04:55:00Z
2020-01-10T02:57:31Z,42.805,6.029,13.3024,4.60003,2469.923,2020-1-10T04:58:03Z
2020-01-10T03:00:34Z,42.805,6.029,13.3043,4.60005,2469.937,2020-1-10T05:01:06Z
2020-01-10T03:03:37Z,42.805,6.029,13.3028,4.60016,2469.914,2020-1-10T05:04:09Z
2020-01-10T03:06:40Z,42.805,6.029,13.3042,4.60004,2469.96,2020-1-10T05:07:12Z
2020-01-10T03:09:44Z,42.805,6.029,13.3034,4.60005,2469.984,2020-1-10T05:10:16Z
2020-01-10T03:12:47Z,42.805,6.029,13.3057,4.60006,2469.96,2020-1-10T05:13:19Z
2020-01-10T03:15:50Z,42.805,6.029,13.3032,4.60006,2469.984,2020-1-10T05:16:22Z
2020-01-10T03:18:53Z,42.805,6.029,13.3022,4.60026,2469.993,2020-1-10T05:19:25Z
2020-01-10T03:21:57Z,42.805,6.029,13.3036,4.60001,2469.984,2020-1-10T05:22:29Z
2020-01-10T03:25:00Z,42.805,6.029,13.3036,4.59999,2469.97,2020-1-10T05:25:32Z
2020-01-10T03:28:03Z,42.805,6.029,13.3023,4.60003,2469.97,2020-1-10T05:28:35Z
2020-01-10T03:31:06Z,42.805,6.029,13.3031,4.60003,2469.984,2020-1-10T05:31:38Z
2020-01-10T03:34:10Z,42.805,6.029,13.3009,4.59997,2469.993,2020-1-10T05:34:42Z
2020-01-10T03:37:13Z,42.805,6.029,13.3033,4.60014,2470.007,2020-1-10T05:37:45Z
2020-01-10T03:40:16Z,42.805,6.029,13.3032,4.59998,2470.007,2020-1-10T05:40:48Z
2020-01-10T03:43:19Z,42.805,6.029,13.3033,4.60009,2469.97,2020-1-10T05:43:51Z
2020-01-10T03:46:23Z,42.805,6.029,13.3024,4.60006,2469.97,2020-1-10T05:46:55Z
2020-01-10T03:49:26Z,42.805,6.029,13.3019,4.60003,2469.993,2020-1-10T05:49:58Z
2020-01-10T03:52:29Z,42.805,6.029,13.3030,4.60025,2469.984,2020-1-10T05:53:01Z
2020-01-10T03:55:32Z,42.805,6.029,13.3027,4.60015,2470.053,2020-1-10T05:56:04Z
2020-01-10T03:58:35Z,42.805,6.029,13.3019,4.60021,2470.017,2020-1-10T05:59:07Z
2020-01-10T04:01:39Z,42.805,6.029,13.3007,4.60008,2470.017,2020-1-10T06:02:11Z
2020-01-10T04:04:42Z,42.805,6.029,13.3022,4.60002,2469.993,2020-1-10T06:05:14Z
2020-01-10T04:07:45Z,42.805,6.029,13.3017,4.60007,2470.03,2020-1-10T06:08:17Z
2020-01-10T04:10:48Z,42.805,6.029,13.3025,4.60014,2470.03,2020-1-10T06:11:20Z
2020-01-10T04:13:52Z,42.805,6.029,13.3019,4.60009,2470.007,2020-1-10T06:14:24Z
2020-01-10T04:16:55Z,42.805,6.029,13.3020,4.60009,2470.04,2020-1-10T06:17:27Z
2020-01-10T04:19:58Z,42.805,6.029,13.3012,4.60007,2470.053,2020-1-10T06:20:30Z
2020-01-10T04:23:01Z,42.805,6.029,13.3014,4.59987,2470.053,2020-1-10T06:23:33Z
2020-01-10T04:26:04Z,42.805,6.029,13.3014,4.59996,2470.077,2020-1-10T06:26:36Z
2020-01-10T04:29:08Z,42.805,6.029,13.3011,4.59996,2470.03,2020-1-10T06:29:40Z
2020-01-10T04:32:11Z,42.805,6.029,13.3006,4.59996,2470.063,2020-1-10T06:32:43Z
2020-01-10T04:35:14Z,42.805,6.029,13.3024,4.59991,2470.063,2020-1-10T06:35:47Z
2020-01-10T04:38:18Z,42.805,6.029,13.3005,4.60016,2470.077,2020-1-10T06:38:50Z
2020-01-10T04:41:21Z,42.805,6.029,13.3033,4.60016,2470.1,2020-1-10T06:41:53Z
2020-01-10T04:44:24Z,42.805,6.029,13.3010,4.60000,2470.053,2020-1-10T06:44:56Z
2020-01-10T04:47:27Z,42.805,6.029,13.3006,4.60005,2470.026,2020-1-10T06:47:59Z
2020-01-10T04:50:31Z,42.805,6.029,13.3003,4.59998,2470.077,2020-1-10T06:51:03Z
2020-01-10T04:53:34Z,42.805,6.029,13.3031,4.59991,2470.053,2020-1-10T06:54:06Z
2020-01-10T04:56:37Z,42.805,6.029,13.3003,4.59996,2470.04,2020-1-10T06:57:09Z
2020-01-10T04:59:40Z,42.805,6.029,13.3019,4.59996,2470.11,2020-1-10T07:00:12Z
2020-01-10T05:02:44Z,42.805,6.029,13.2992,4.59993,2470.1,2020-1-10T07:03:16Z
2020-01-10T05:05:47Z,42.805,6.029,13.3001,4.59988,2470.053,2020-1-10T07:06:19Z
2020-01-10T05:08:50Z,42.805,6.029,13.3009,4.60004,2470.087,2020-1-10T07:09:22Z
2020-01-10T05:11:53Z,42.805,6.029,13.2999,4.59991,2470.063,2020-1-10T07:12:25Z
2020-01-10T05:14:57Z,42.805,6.029,13.3011,4.59986,2470.1,2020-1-10T07:15:29Z
2020-01-10T05:18:00Z,42.805,6.029,13.3001,4.59979,2470.063,2020-1-10T07:18:32Z
2020-01-10T05:21:03Z,42.805,6.029,13.2991,4.59989,2470.1,2020-1-10T07:21:35Z
2020-01-10T05:24:06Z,42.805,6.029,13.2992,4.59986,2470.087,2020-1-10T07:24:38Z
2020-01-10T05:27:10Z,42.805,6.029,13.2997,4.59986,2470.11,2020-1-10T07:27:42Z
2020-01-10T05:30:13Z,42.805,6.029,13.3011,4.59987,2470.11,2020-1-10T07:30:45Z
2020-01-10T05:33:16Z,42.805,6.029,13.3004,4.59989,2470.1,2020-1-10T07:33:48Z
2020-01-10T05:36:19Z,42.805,6.029,13.2991,4.59986,2470.073,2020-1-10T07:36:51Z
2020-01-10T05:39:23Z,42.805,6.029,13.2986,4.59987,2470.124,2020-1-10T07:39:55Z
2020-01-10T05:42:26Z,42.805,6.029,13.2986,4.59981,2470.087,2020-1-10T07:42:58Z
2020-01-10T05:45:29Z,42.805,6.029,13.2990,4.59986,2470.124,2020-1-10T07:46:01Z
2020-01-10T05:48:32Z,42.805,6.029,13.2990,4.59986,2470.11,2020-1-10T07:49:04Z
2020-01-10T05:51:36Z,42.805,6.029,13.2991,4.59981,2470.124,2020-1-10T07:52:08Z
2020-01-10T05:54:39Z,42.805,6.029,13.2977,4.59992,2470.124,2020-1-10T07:55:11Z
2020-01-10T05:57:42Z,42.805,6.029,13.2991,4.59978,2470.11,2020-1-10T07:58:14Z
2020-01-10T06:00:45Z,42.805,6.029,13.2990,4.59991,2470.124,2020-1-10T08:01:17Z
2020-01-10T06:03:48Z,42.805,6.029,13.2992,4.59986,2470.124,2020-1-10T08:04:21Z
2020-01-10T06:06:52Z,42.805,6.029,13.2995,4.59991,2470.133,2020-1-10T08:07:24Z
2020-01-10T06:09:55Z,42.805,6.029,13.2989,4.59991,2470.11,2020-1-10T08:10:27Z
2020-01-10T06:12:58Z,42.805,6.029,13.2998,4.59992,2470.11,2020-1-10T08:13:30Z
2020-01-10T06:16:01Z,42.805,6.029,13.3004,4.59987,2470.133,2020-1-10T08:16:34Z
2020-01-10T06:19:05Z,42.805,6.029,13.2996,4.59986,2470.133,2020-1-10T08:19:37Z
2020-01-10T06:22:08Z,42.805,6.029,13.2985,4.59981,2470.147,2020-1-10T08:22:40Z
2020-01-10T06:25:11Z,42.805,6.029,13.2993,4.59988,2470.11,2020-1-10T08:25:43Z
2020-01-10T06:28:14Z,42.805,6.029,13.3000,4.59992,2470.143,2020-1-10T08:28:46Z
2020-01-10T06:31:18Z,42.805,6.029,13.2992,4.59994,2470.133,2020-1-10T08:31:50Z
2020-01-10T06:34:21Z,42.805,6.029,13.3001,4.59988,2470.147,2020-1-10T08:34:53Z
2020-01-10T06:37:24Z,42.805,6.029,13.2996,4.59987,2470.156,2020-1-10T08:37:56Z
2020-01-10T06:40:27Z,42.805,6.029,13.2996,4.59991,2470.133,2020-1-10T08:40:59Z
2020-01-10T06:43:31Z,42.805,6.029,13.2998,4.59984,2470.171,2020-1-10T08:44:03Z
2020-01-10T06:46:34Z,42.805,6.029,13.2994,4.59989,2470.171,2020-1-10T08:47:06Z
2020-01-10T06:49:37Z,42.805,6.029,13.2991,4.59983,2470.147,2020-1-10T08:50:09Z
2020-01-10T06:52:40Z,42.805,6.029,13.2993,4.59985,2470.147,2020-1-10T08:53:12Z
2020-01-10T06:55:44Z,42.805,6.029,13.2990,4.59986,2470.171,2020-1-10T08:56:16Z
2020-01-10T06:58:47Z,42.805,6.029,13.2986,4.59986,2470.124,2020-1-10T08:59:19Z
2020-01-10T07:01:50Z,42.805,6.029,13.2993,4.59993,2470.18,2020-1-10T09:02:22Z
2020-01-10T07:04:53Z,42.805,6.029,13.2986,4.59993,2470.18,2020-1-10T09:05:25Z
2020-01-10T07:07:57Z,42.805,6.029,13.2990,4.59988,2470.171,2020-1-10T09:08:29Z
2020-01-10T07:11:00Z,42.805,6.029,13.3002,4.59991,2470.203,2020-1-10T09:11:32Z
2020-01-10T07:14:03Z,42.805,6.029,13.2990,4.59978,2470.171,2020-1-10T09:14:35Z
2020-01-10T07:17:06Z,42.805,6.029,13.2988,4.59993,2470.147,2020-1-10T09:17:38Z
2020-01-10T07:20:10Z,42.805,6.029,13.2999,4.59982,2470.133,2020-1-10T09:20:42Z
2020-01-10T07:23:13Z,42.805,6.029,13.2993,4.59993,2470.156,2020-1-10T09:23:45Z
2020-01-10T07:26:16Z,42.805,6.029,13.2989,4.59985,2470.171,2020-1-10T09:26:48Z
2020-01-10T07:29:19Z,42.805,6.029,13.2992,4.59986,2470.171,2020-1-10T09:29:51Z
2020-01-10T07:32:22Z,42.805,6.029,13.2979,4.60012,2470.156,2020-1-10T09:32:54Z
2020-01-10T07:35:26Z,42.805,6.029,13.2987,4.59988,2470.156,2020-1-10T09:35:58Z
2020-01-10T07:38:29Z,42.805,6.029,13.2998,4.59999,2470.171,2020-1-10T09:39:01Z
2020-01-10T07:41:32Z,42.805,6.029,13.2992,4.59985,2470.194,2020-1-10T09:42:04Z
2020-01-10T07:44:35Z,42.805,6.029,13.2996,4.59980,2470.133,2020-1-10T09:45:07Z
2020-01-10T07:47:39Z,42.805,6.029,13.2986,4.59986,2470.133,2020-1-10T09:48:11Z
2020-01-10T07:50:42Z,42.805,6.029,13.2993,4.59980,2470.133,2020-1-10T09:51:14Z
2020-01-10T07:53:45Z,42.805,6.029,13.2988,4.59987,2470.11,2020-1-10T09:54:17Z
2020-01-10T07:56:48Z,42.805,6.029,13.2985,4.59984,2470.133,2020-1-10T09:57:20Z
2020-01-10T07:59:52Z,42.805,6.029,13.2988,4.59986,2470.156,2020-1-10T10:00:24Z
2020-01-10T08:02:55Z,42.805,6.029,13.2987,4.59989,2470.194,2020-1-10T10:03:27Z
2020-01-10T08:05:58Z,42.805,6.029,13.2999,4.59986,2470.171,2020-1-10T10:06:30Z
2020-01-10T08:09:01Z,42.805,6.029,13.2999,4.59984,2470.171,2020-1-10T10:09:33Z
2020-01-10T08:12:05Z,42.805,6.029,13.3001,4.59990,2470.133,2020-1-10T10:12:37Z
2020-01-10T08:15:08Z,42.805,6.029,13.2993,4.59984,2470.156,2020-1-10T10:15:40Z
2020-01-10T08:18:11Z,42.805,6.029,13.2993,4.59983,2470.171,2020-1-10T10:18:43Z
2020-01-10T08:21:14Z,42.805,6.029,13.2998,4.59986,2470.147,2020-1-10T10:21:46Z
2020-01-10T08:24:17Z,42.805,6.029,13.2989,4.59984,2470.156,2020-1-10T10:24:50Z
2020-01-10T08:27:21Z,42.805,6.029,13.3005,4.59984,2470.133,2020-1-10T10:27:53Z
2020-01-10T08:30:24Z,42.805,6.029,13.2984,4.59991,2470.147,2020-1-10T10:30:56Z
2020-01-10T08:33:27Z,42.805,6.029,13.2993,4.59981,2470.133,2020-1-10T10:33:59Z
2020-01-10T08:36:30Z,42.805,6.029,13.2998,4.59980,2470.147,2020-1-10T10:37:02Z
2020-01-10T08:39:34Z,42.805,6.029,13.2993,4.59987,2470.124,2020-1-10T10:40:06Z
2020-01-10T08:42:37Z,42.805,6.029,13.2995,4.59982,2470.133,2020-1-10T10:43:09Z
2020-01-10T08:45:40Z,42.805,6.029,13.2981,4.59984,2470.133,2020-1-10T10:46:12Z
2020-01-10T08:48:43Z,42.805,6.029,13.2989,4.59984,2470.124,2020-1-10T10:49:15Z
2020-01-10T08:51:47Z,42.805,6.029,13.2995,4.59989,2470.11,2020-1-10T10:52:19Z
2020-01-10T08:54:50Z,42.805,6.029,13.2983,4.59984,2470.147,2020-1-10T10:55:22Z
2020-01-10T08:57:53Z,42.805,6.029,13.2987,4.59986,2470.147,2020-1-10T10:58:25Z
2020-01-10T09:00:56Z,42.805,6.029,13.2984,4.59983,2470.11,2020-1-10T11:01:29Z
2020-01-10T09:04:00Z,42.805,6.029,13.2992,4.59984,2470.087,2020-1-10T11:04:32Z
2020-01-10T09:07:03Z,42.805,6.029,13.2989,4.59981,2470.124,2020-1-10T11:07:35Z
2020-01-10T09:10:06Z,42.805,6.029,13.2998,4.59991,2470.11,2020-1-10T11:10:38Z
2020-01-10T09:13:09Z,42.805,6.029,13.2991,4.59986,2470.124,2020-1-10T11:13:41Z
2020-01-10T09:16:13Z,42.805,6.029,13.2992,4.59982,2470.147,2020-1-10T11:16:45Z
2020-01-10T09:19:16Z,42.805,6.029,13.2985,4.59984,2470.133,2020-1-10T11:19:48Z
2020-01-10T09:22:19Z,42.805,6.029,13.2991,4.59984,2470.133,2020-1-10T11:22:51Z
2020-01-10T09:25:22Z,42.805,6.029,13.2990,4.59986,2470.171,2020-1-10T11:25:54Z
2020-01-10T09:28:26Z,42.805,6.029,13.2990,4.59987,2470.11,2020-1-10T11:28:58Z
2020-01-10T09:31:29Z,42.805,6.029,13.2991,4.59984,2470.133,2020-1-10T11:32:01Z
2020-01-10T09:34:32Z,42.805,6.029,13.2990,4.59993,2470.124,2020-1-10T11:35:04Z
2020-01-10T09:37:35Z,42.805,6.029,13.2987,4.59986,2470.11,2020-1-10T11:38:07Z
2020-01-10T09:40:38Z,42.805,6.029,13.2989,4.59986,2470.124,2020-1-10T11:41:11Z
2020-01-10T09:43:42Z,42.805,6.029,13.2995,4.59985,2470.11,2020-1-10T11:44:14Z
2020-01-10T09:46:45Z,42.805,6.029,13.2990,4.59982,2470.087,2020-1-10T11:47:17Z
2020-01-10T09:49:48Z,42.805,6.029,13.2983,4.59988,2470.147,2020-1-10T11:50:20Z
2020-01-10T09:52:51Z,42.805,6.029,13.2982,4.59983,2470.147,2020-1-10T11:53:24Z
2020-01-10T09:55:55Z,42.805,6.029,13.2984,4.59982,2470.11,2020-1-10T11:56:27Z
2020-01-10T09:58:58Z,42.805,6.029,13.2989,4.59991,2470.11,2020-1-10T11:59:30Z
2020-01-10T10:02:01Z,42.805,6.029,13.2986,4.59992,2470.124,2020-1-10T12:02:33Z
2020-01-10T10:05:04Z,42.805,6.029,13.2986,4.59988,2470.124,2020-1-10T12:05:36Z
2020-01-10T10:08:08Z,42.805,6.029,13.2982,4.59981,2470.077,2020-1-10T12:08:40Z
2020-01-10T10:11:11Z,42.805,6.029,13.2990,4.60011,2470.124,2020-1-10T12:11:43Z
2020-01-10T10:14:14Z,42.805,6.029,13.2988,4.59983,2470.133,2020-1-10T12:14:46Z
2020-01-10T10:17:17Z,42.805,6.029,13.2982,4.59986,2470.11,2020-1-10T12:17:49Z
2020-01-10T10:20:20Z,42.805,6.029,13.2989,4.59999,2470.124,2020-1-10T12:20:53Z
2020-01-10T10:23:24Z,42.805,6.029,13.2980,4.59981,2470.087,2020-1-10T12:23:56Z
2020-01-10T10:26:27Z,42.805,6.029,13.2987,4.59976,2470.087,2020-1-10T12:26:59Z
2020-01-10T10:29:30Z,42.805,6.029,13.2981,4.59979,2470.087,2020-1-10T12:30:02Z
2020-01-10T10:32:33Z,42.805,6.029,13.2988,4.59981,2470.077,2020-1-10T12:33:05Z
2020-01-10T10:35:37Z,42.805,6.029,13.2985,4.59988,2470.1,2020-1-10T12:36:09Z
2020-01-10T10:38:40Z,42.805,6.029,13.2986,4.59983,2470.077,2020-1-10T12:39:12Z
2020-01-10T10:41:43Z,42.805,6.029,13.2979,4.59998,2470.053,2020-1-10T12:42:15Z
2020-01-10T10:44:46Z,42.805,6.029,13.2986,4.59982,2470.073,2020-1-10T12:45:18Z
2020-01-10T10:47:49Z,42.805,6.029,13.2980,4.59981,2470.04,2020-1-10T12:48:22Z
2020-01-10T10:50:53Z,42.805,6.029,13.2992,4.59980,2470.1,2020-1-10T12:51:25Z
2020-01-10T10:53:56Z,42.805,6.029,13.2983,4.59979,2470.063,2020-1-10T12:54:28Z
2020-01-10T10:56:59Z,42.805,6.029,13.2982,4.59981,2470.049,2020-1-10T12:57:31Z
2020-01-10T11:00:02Z,42.805,6.029,13.2982,4.59988,2470.063,2020-1-10T13:00:34Z
2020-01-10T11:03:06Z,42.805,6.029,13.2992,4.59985,2470.04,2020-1-10T13:03:38Z
2020-01-10T11:06:09Z,42.805,6.029,13.2983,4.59983,2470.077,2020-1-10T13:06:41Z
2020-01-10T11:09:12Z,42.805,6.029,13.2985,4.59991,2470.063,2020-1-10T13:09:44Z
2020-01-10T11:12:15Z,42.805,6.029,13.2986,4.59984,2470.077,2020-1-10T13:12:47Z
2020-01-10T11:15:19Z,42.805,6.029,13.2983,4.59976,2470.053,2020-1-10T13:15:51Z
2020-01-10T11:18:22Z,42.805,6.029,13.2977,4.59978,2470.017,2020-1-10T13:18:54Z
2020-01-10T11:21:25Z,42.805,6.029,13.2990,4.59981,2470.003,2020-1-10T13:21:57Z
2020-01-10T11:24:28Z,42.805,6.029,13.2987,4.59982,2470.04,2020-1-10T13:25:00Z
2020-01-10T11:27:32Z,42.805,6.029,13.2983,4.59976,2470.04,2020-1-10T13:28:04Z
2020-01-10T11:30:35Z,42.805,6.029,13.2991,4.59986,2470.04,2020-1-10T13:31:07Z
2020-01-10T11:33:38Z,42.805,6.029,13.2984,4.59997,2470.017,2020-1-10T13:34:10Z
2020-01-10T11:36:41Z,42.805,6.029,13.2993,4.59976,2470.053,2020-1-10T13:37:13Z
2020-01-10T11:39:45Z,42.805,6.029,13.2980,4.59981,2470.017,2020-1-10T13:40:17Z
2020-01-10T11:42:48Z,42.805,6.029,13.2979,4.59980,2470.017,2020-1-10T13:43:20Z
2020-01-10T11:45:51Z,42.805,6.029,13.2989,4.59989,2469.984,2020-1-10T13:46:23Z
2020-01-10T11:48:54Z,42.805,6.029,13.2988,4.59980,2470.053,2020-1-10T13:49:26Z
2020-01-10T11:51:58Z,42.805,6.029,13.2987,4.59978,2469.993,2020-1-10T13:52:30Z
2020-01-10T11:55:01Z,42.805,6.029,13.2986,4.59983,2470.017,2020-1-10T13:55:33Z
2020-01-10T11:58:04Z,42.805,6.029,13.2998,4.59986,2470.03,2020-1-10T13:58:36Z
2020-01-10T12:01:07Z,42.805,6.029,13.2993,4.59979,2470.03,2020-1-10T14:01:39Z
2020-01-10T12:04:11Z,42.805,6.029,13.2983,4.59978,2469.993,2020-1-10T14:04:43Z
2020-01-10T12:07:14Z,42.805,6.029,13.2985,4.60009,2470.03,2020-1-10T14:07:46Z
2020-01-10T12:10:17Z,42.805,6.029,13.2985,4.59978,2470.03,2020-1-10T14:10:49Z
2020-01-10T12:13:20Z,42.805,6.029,13.2982,4.59978,2470.017,2020-1-10T14:13:52Z
2020-01-10T12:16:23Z,42.805,6.029,13.2982,4.59987,2469.993,2020-1-10T14:16:56Z
2020-01-10T12:19:27Z,42.805,6.029,13.2978,4.59976,2469.97,2020-1-10T14:19:59Z
2020-01-10T12:22:30Z,42.805,6.029,13.2985,4.59978,2470.007,2020-1-10T14:23:02Z
2020-01-10T12:25:33Z,42.805,6.029,13.2986,4.59984,2470.007,2020-1-10T14:26:05Z
2020-01-10T12:28:36Z,42.805,6.029,13.3015,4.59986,2469.993,2020-1-10T14:29:08Z
2020-01-10T12:31:40Z,42.805,6.029,13.2996,4.59980,2469.97,2020-1-10T14:32:12Z
2020-01-10T12:34:43Z,42.805,6.029,13.2991,4.59982,2470.007,2020-1-10T14:35:15Z
2020-01-10T12:37:46Z,42.805,6.029,13.2988,4.59978,2469.97,2020-1-10T14:38:18Z
2020-01-10T12:40:49Z,42.805,6.029,13.2986,4.59988,2469.993,2020-1-10T14:41:21Z
2020-01-10T12:43:53Z,42.805,6.029,13.2999,4.59985,2470.007,2020-1-10T14:44:25Z
2020-01-10T12:46:56Z,42.805,6.029,13.2976,4.59973,2469.97,2020-1-10T14:47:28Z
2020-01-10T12:49:59Z,42.805,6.029,13.2980,4.59996,2469.993,2020-1-10T14:50:31Z
2020-01-10T12:53:02Z,42.805,6.029,13.3003,4.60008,2470.007,2020-1-10T14:53:34Z
2020-01-10T12:56:06Z,42.805,6.029,13.2989,4.59988,2469.97,2020-1-10T14:56:38Z
2020-01-10T12:59:09Z,42.805,6.029,13.3005,4.59986,2469.97,2020-1-10T14:59:41Z
2020-01-10T13:02:12Z,42.805,6.029,13.2980,4.60017,2469.97,2020-1-10T15:02:44Z
2020-01-10T13:05:15Z,42.805,6.029,13.2995,4.60009,2469.947,2020-1-10T15:05:47Z
2020-01-10T13:08:18Z,42.805,6.029,13.2985,4.59979,2469.97,2020-1-10T15:08:51Z
2020-01-10T13:11:22Z,42.805,6.029,13.2986,4.59996,2469.97,2020-1-10T15:11:54Z
2020-01-10T13:14:25Z,42.805,6.029,13.2978,4.59989,2469.97,2020-1-10T15:14:57Z
2020-01-10T13:17:28Z,42.805,6.029,13.3007,4.59991,2469.947,2020-1-10T15:18:00Z
2020-01-10T13:20:32Z,42.805,6.029,13.2999,4.59996,2469.96,2020-1-10T15:21:04Z
2020-01-10T13:23:35Z,42.805,6.029,13.2982,4.59980,2469.97,2020-1-10T15:24:07Z
2020-01-10T13:26:38Z,42.805,6.029,13.2983,4.59996,2469.947,2020-1-10T15:27:10Z
2020-01-10T13:29:42Z,42.805,6.029,13.3031,4.59992,2469.984,2020-1-10T15:30:14Z
2020-01-10T13:32:45Z,42.805,6.029,13.2996,4.60000,2469.97,2020-1-10T15:33:17Z
2020-01-10T13:35:48Z,42.805,6.029,13.2999,4.59991,2469.947,2020-1-10T15:36:20Z
2020-01-10T13:38:51Z,42.805,6.029,13.2986,4.60016,2469.947,2020-1-10T15:39:23Z
2020-01-10T13:41:55Z,42.805,6.029,13.2977,4.59999,2469.984,2020-1-10T15:42:27Z
2020-01-10T13:44:58Z,42.805,6.029,13.2980,4.59999,2469.947,2020-1-10T15:45:30Z
2020-01-10T13:48:01Z,42.805,6.029,13.2961,4.59986,2469.937,2020-1-10T15:48:33Z
2020-01-10T13:51:04Z,42.805,6.029,13.2981,4.59989,2469.96,2020-1-10T15:51:36Z
2020-01-10T13:54:07Z,42.805,6.029,13.2974,4.59996,2470.007,2020-1-10T15:54:40Z
2020-01-10T13:57:11Z,42.805,6.029,13.2991,4.59985,2469.97,2020-1-10T15:57:43Z
2020-01-10T14:00:14Z,42.805,6.029,13.2964,4.59981,2469.96,2020-1-10T16:00:46Z
2020-01-10T14:03:17Z,42.805,6.029,13.2969,4.59989,2469.947,2020-1-10T16:03:49Z
2020-01-10T14:06:20Z,42.805,6.029,13.2980,4.60001,2469.937,2020-1-10T16:06:52Z
2020-01-10T14:09:24Z,42.805,6.029,13.3018,4.59987,2469.947,2020-1-10T16:09:56Z
2020-01-10T14:12:27Z,42.805,6.029,13.2961,4.59989,2469.947,2020-1-10T16:12:59Z
2020-01-10T14:15:30Z,42.805,6.029,13.2963,4.59976,2469.947,2020-1-10T16:16:02Z
2020-01-10T14:18:33Z,42.805,6.029,13.3008,4.59978,2469.96,2020-1-10T16:19:05Z
2020-01-10T14:21:37Z,42.805,6.029,13.2968,4.59976,2469.97,2020-1-10T16:22:09Z
2020-01-10T14:24:40Z,42.805,6.029,13.2968,4.59979,2469.96,2020-1-10T16:25:12Z
2020-01-10T14:27:43Z,42.805,6.029,13.2963,4.59973,2469.923,2020-1-10T16:28:15Z
2020-01-10T14:30:46Z,42.805,6.029,13.2983,4.59986,2469.984,2020-1-10T16:31:18Z
2020-01-10T14:33:50Z,42.805,6.029,13.2976,4.59999,2469.96,2020-1-10T16:34:22Z
2020-01-10T14:36:53Z,42.805,6.029,13.2977,4.59986,2469.984,2020-1-10T16:37:25Z
2020-01-10T14:39:56Z,42.805,6.029,13.2962,4.59972,2469.947,2020-1-10T16:40:28Z
2020-01-10T14:42:59Z,42.805,6.029,13.2962,4.59978,2469.96,2020-1-10T16:43:31Z
2020-01-10T14:46:02Z,42.805,6.029,13.2962,4.59975,2469.984,2020-1-10T16:46:35Z
2020-01-10T14:49:06Z,42.805,6.029,13.2962,4.59976,2469.947,2020-1-10T16:49:38Z
2020-01-10T14:52:09Z,42.805,6.029,13.2961,4.59970,2469.97,2020-1-10T16:52:41Z
2020-01-10T14:55:13Z,42.805,6.029,13.2960,4.59967,2469.97,2020-1-10T16:55:45Z
2020-01-10T14:58:16Z,42.805,6.029,13.2962,4.59998,2469.97,2020-1-10T16:58:48Z
2020-01-10T15:01:19Z,42.805,6.029,13.2968,4.59972,2469.984,2020-1-10T17:01:51Z
2020-01-10T15:04:22Z,42.805,6.029,13.2968,4.59986,2469.97,2020-1-10T17:04:54Z
2020-01-10T15:07:26Z,42.805,6.029,13.2963,4.59969,2469.97,2020-1-10T17:07:58Z
2020-01-10T15:10:29Z,42.805,6.029,13.2962,4.59968,2469.947,2020-1-10T17:11:01Z
2020-01-10T15:13:32Z,42.805,6.029,13.2962,4.59971,2469.97,2020-1-10T17:14:04Z